RH
19 23 30 40 44 45 60 63 53 58 61 63 67 67 69 73 69 79 67 61 60 73 74 71 67 68 72 70 80 78 78 78 72 67 69 78 74 67 60 65 59 54 60 51
19 21 28 40 45 47 54 54 49 50 59 61 65 68 65 69 70 66 70 71 65 67 76 67 69 73 69 71 74 75 79 79 73 71 69 76 70 68 63 61 56 54 53 50
19 20 23 27 32 43 44 47 46 48 54 57 59 65 61 63 66 70 70 66 72 78 71 67 68 66 74 74 71 76 75 80 76 75 71 70 68 70 64 64 61 56 58 56
16 18 20 22 22 28 37 38 41 40 50 74 62 87 72 63 65 62 62 65 68 74 69 79 80 68 65 79 70 72 72 76 78 73 76 71 70 67 63 63 64 63 57 57
15 15 16 16 16 25 35 45 40 30 37 60 55 59 72 72 66 60 62 67 69 67 71 69 72 76 68 70 67 67 67 71 74 75 73 69 69 71 66 59 64 57 65 59
17 17 12 12 13 17 25 37 41 35 36 48 40 42 68 58 59 69 62 63 65 74 69 72 73 74 91 71 67 69 64 68 70 73 72 70 69 70 72 62 65 56 62 59
16 19 17 16 15 13 20 35 38 36 34 38 43 44 45 47 54 55 55 57 59 62 68 70 71 75 72 69 66 66 64 63 65 66 71 70 67 68 70 65 66 57 61 62
25 24 19 16 15 18 21 31 30 47 50 53 49 40 40 48 50 44 43 47 49 53 58 63 65 74 77 70 73 64 67 66 63 62 62 68 69 67 66 71 72 60 62 67
22 23 24 21 20 30 22 31 28 40 42 45 52 44 42 42 42 45 43 43 46 47 49 56 60 68 77 80 84 68 69 69 65 62 61 64 67 67 68 71 68 63 57 67
29 27 27 21 21 25 35 30 29 29 45 46 35 32 39 49 44 43 41 37 38 37 43 49 58 66 70 78 86 84 73 68 69 66 62 61 66 67 70 74 69 68 65 56
30 31 39 27 22 25 29 33 32 33 30 30 31 37 37 42 47 44 41 38 38 41 42 44 51 61 71 75 82 84 85 78 71 70 68 61 60 63 66 70 65 55 57 85
26 28 33 33 30 29 36 28 26 26 29 28 29 39 42 42 41 36 44 40 41 39 39 42 47 54 65 72 79 78 83 85 81 73 70 68 63 60 60 59 59 58 57 57
31 29 32 43 36 29 28 31 32 32 31 45 46 45 45 45 41 38 40 38 43 43 43 45 46 51 55 58 67 74 76 82 85 88 77 72 66 66 60 58 56 57 55 55
35 34 31 38 40 45 39 30 31 29 29 29 36 51 51 49 42 36 36 38 40 42 46 49 46 48 52 57 60 65 71 73 82 87 88 72 71 64 65 61 58 57 56 54
31 37 38 32 39 42 39 34 33 34 34 35 37 43 52 52 41 38 37 38 39 45 47 49 48 53 56 60 62 62 66 75 75 86 88 70 93 69 68 68 60 54 55 53
36 34 38 42 35 42 36 33 37 38 40 37 37 40 42 47 44 39 39 38 40 48 47 54 53 53 59 68 69 75 71 73 84 90 83 71 72 81 81 74 71 64 61 57
43 40 39 39 38 38 32 34 35 34 35 38 40 42 45 46 38 37 39 39 42 49 53 54 54 57 62 73 77 83 81 82 90 92 90 79 79 71 79 78 78 77 72 72
44 44 44 42 37 44 39 36 39 36 35 38 42 50 50 51 46 41 42 42 46 49 54 56 59 58 60 71 86 85 82 85 88 95 95 98 92 87 77 69 72 76 74 78
44 43 45 47 39 43 44 43 37 35 30 40 42 45 47 48 43 45 42 45 52 53 57 58 63 59 59 59 67 74 83 89 87 87 90 96 94 92 82 77 78 76 76 76
43 42 44 48 48 54 42 38 41 36 36 35 38 44 49 50 47 47 53 45 54 56 56 58 62 64 66 66 70 71 74 76 80 75 84 92 88 86 82 83 86 85 85 85
46 45 44 44 49 47 43 41 45 41 36 44 42 41 47 47 60 62 59 53 54 54 58 60 64 67 65 69 70 71 75 75 76 74 68 76 84 89 82 83 92 91 89 87
56 47 44 45 49 51 41 40 43 37 45 40 40 41 46 51 53 53 53 54 55 57 56 56 55 55 58 62 65 70 70 74 73 67 72 75 77 83 86 83 81 84 87 87
65 57 45 44 44 40 49 46 47 37 45 42 41 47 48 55 51 50 51 52 55 48 46 45 41 42 45 42 45 56 60 55 54 55 56 65 70 77 81 82 80 76 78 86
56 55 56 50 50 53 50 48 47 39 44 43 46 52 53 52 51 50 50 50 48 47 46 48 47 48 47 45 38 38 43 45 43 44 51 55 61 67 76 76 76 75 80 82
73 62 51 55 53 55 50 51 53 41 42 43 49 53 50 53 56 54 50 51 52 51 52 48 43 40 44 39 41 38 37 37 38 41 40 42 48 55 61 65 68 72 73 75
78 77 66 60 66 58 52 49 47 48 46 46 48 50 54 55 55 56 56 55 54 53 51 47 39 38 41 38 39 40 39 41 42 43 47 46 45 46 50 55 59 64 69 71